Location: Newark
(37.3186°N, 13.6631°E)
Time: 21:36:49
(UTC+00:00)

ISS - Pass Details

Date: 22 November 2019
Orbit: 412 x 421 km, 51.6° (Epoch: 05 December)

Event Time Altitude Azimuth Distance (km) Brightness Sun altitude
Rises 17:23:20 0° 238° (WSW) 2,342 1.4 -18.2°
Reaches altitude 10° 17:25:26 10° 243° (WSW) 1,485 0.2 -18.6°
Maximum altitude 17:28:43 55° 322° (NW) 507 -3.3 -19.3°
Enters shadow 17:29:16 47° 3° (N) 560 -3.3 -19.4°
